�������l�o���
Date,Time,MP-1(��Sv/h),MP-2(��Sv/h),MP-3(��Sv/h),MP-4(��Sv/h),MP-5(��Sv/h),MP-6(��Sv/h),MP-7(��Sv/h),MP-8(��Sv/h),����,����(m/s),���J
2020/04/29,00:00,0.687,0.993,0.655,1.199,0.858,0.396,0.693,0.655,�k��,3.7,��
2020/04/29,00:10,0.688,0.996,0.657,1.198,0.859,0.396,0.691,0.654,�k��,4.0,��
2020/04/29,00:20,0.691,0.996,0.655,1.203,0.861,0.396,0.691,0.656,�k��,3.7,��
2020/04/29,00:30,0.689,0.995,0.654,1.198,0.859,0.396,0.691,0.654,�k��,3.4,��
2020/04/29,00:40,0.689,0.995,0.656,1.201,0.857,0.396,0.692,0.656,�k��,3.5,��
2020/04/29,00:50,0.688,0.997,0.656,1.203,0.857,0.397,0.690,0.656,�k��,3.7,��
2020/04/29,01:00,0.690,0.994,0.655,1.200,0.859,0.395,0.692,0.656,���k��,3.9,��
2020/04/29,01:10,0.690,0.994,0.656,1.201,0.858,0.395,0.692,0.655,���k��,4.3,��
2020/04/29,01:20,0.689,0.995,0.654,1.202,0.860,0.396,0.691,0.655,���k��,4.6,��
2020/04/29,01:30,0.687,0.993,0.655,1.199,0.860,0.395,0.691,0.656,���k��,4.6,��
2020/04/29,01:40,0.689,0.995,0.656,1.201,0.860,0.396,0.691,0.656,���k��,4.8,��
2020/04/29,01:50,0.687,0.993,0.656,1.201,0.862,0.395,0.692,0.656,���k��,5.3,��
2020/04/29,02:00,0.690,0.995,0.656,1.201,0.860,0.396,0.691,0.655,���k��,4.3,��
2020/04/29,02:10,0.688,0.994,0.655,1.199,0.860,0.396,0.692,0.657,���k��,3.8,��
2020/04/29,02:20,0.688,0.994,0.656,1.203,0.859,0.396,0.691,0.656,��,3.9,��
2020/04/29,02:30,0.689,0.995,0.655,1.199,0.859,0.395,0.692,0.656,��,4.1,��
2020/04/29,02:40,0.689,0.992,0.656,1.200,0.859,0.396,0.691,0.656,��,3.7,��
2020/04/29,02:50,0.689,0.994,0.656,1.201,0.860,0.394,0.691,0.656,��,3.3,��
2020/04/29,03:00,0.688,0.993,0.657,1.201,0.859,0.396,0.689,0.655,���쐼,2.2,��
2020/04/29,03:10,0.689,0.994,0.656,1.200,0.859,0.395,0.690,0.655,���쐼,2.8,��
2020/04/29,03:20,0.687,0.993,0.656,1.202,0.858,0.396,0.691,0.656,���쐼,3.4,��
2020/04/29,03:30,0.689,0.994,0.656,1.200,0.859,0.396,0.692,0.655,��,2.6,��
2020/04/29,03:40,0.689,0.993,0.655,1.200,0.860,0.396,0.691,0.656,��,1.2,��
2020/04/29,03:50,0.688,0.991,0.655,1.202,0.859,0.396,0.692,0.655,���쐼,0.9,��
2020/04/29,04:00,0.688,0.994,0.657,1.201,0.857,0.396,0.692,0.655,��,0.6,��
2020/04/29,04:10,0.688,0.992,0.655,1.200,0.859,0.397,0.691,0.655,��쓌,1.2,��
2020/04/29,04:20,0.688,0.993,0.654,1.200,0.859,0.395,0.690,0.656,��쓌,1.2,��
2020/04/29,04:30,0.687,0.994,0.655,1.203,0.857,0.395,0.690,0.657,��쓌,2.0,��
2020/04/29,04:40,0.687,0.994,0.655,1.202,0.859,0.395,0.693,0.655,�쓌,1.7,��
2020/04/29,04:50,0.688,0.993,0.655,1.200,0.860,0.396,0.690,0.654,��쓌,2.5,��
2020/04/29,05:00,0.688,0.993,0.655,1.201,0.860,0.396,0.692,0.657,��,2.6,��
2020/04/29,05:10,0.688,0.992,0.657,1.201,0.857,0.396,0.692,0.655,��,1.9,��
2020/04/29,05:20,0.688,0.993,0.654,1.199,0.860,0.395,0.691,0.657,��,3.0,��
2020/04/29,05:30,0.688,0.996,0.653,1.201,0.858,0.395,0.689,0.655,��,3.3,��
2020/04/29,05:40,0.687,0.993,0.654,1.200,0.859,0.394,0.691,0.656,��,3.4,��
2020/04/29,05:50,0.689,0.994,0.655,1.201,0.858,0.394,0.691,0.657,��,3.9,��
2020/04/29,06:00,0.688,0.994,0.653,1.201,0.859,0.396,0.690,0.656,��,3.0,��
2020/04/29,06:10,0.688,0.993,0.653,1.200,0.858,0.396,0.690,0.657,��,3.0,��
2020/04/29,06:20,0.689,0.994,0.654,1.200,0.859,0.394,0.693,0.655,��,4.4,��
2020/04/29,06:30,0.688,0.996,0.656,1.201,0.860,0.396,0.692,0.656,��,4.4,��
2020/04/29,06:40,0.688,0.995,0.656,1.202,0.859,0.396,0.691,0.656,��,6.2,��
2020/04/29,06:50,0.690,0.996,0.656,1.199,0.860,0.398,0.692,0.656,��,5.9,��
2020/04/29,07:00,0.692,0.996,0.655,1.203,0.859,0.396,0.692,0.657,��,3.9,��
2020/04/29,07:10,0.690,0.997,0.656,1.204,0.862,0.396,0.693,0.654,��,3.7,��
2020/04/29,07:20,0.690,0.994,0.656,1.203,0.860,0.393,0.694,0.655,��쓌,4.1,��
2020/04/29,07:30,0.690,0.993,0.655,1.200,0.861,0.394,0.694,0.656,��,4.6,��
2020/04/29,07:40,0.691,0.994,0.656,1.201,0.860,0.394,0.693,0.658,��쓌,5.4,��
2020/04/29,07:50,0.690,0.993,0.656,1.201,0.861,0.395,0.693,0.656,��쓌,5.6,��
2020/04/29,08:00,0.691,0.993,0.657,1.204,0.862,0.396,0.694,0.658,��쓌,6.5,��
2020/04/29,08:10,0.691,0.993,0.657,1.204,0.862,0.396,0.693,0.655,��,8.2,��
2020/04/29,08:20,0.692,0.995,0.657,1.200,0.861,0.396,0.692,0.656,��쓌,8.9,��
2020/04/29,08:30,0.690,0.995,0.657,1.204,0.860,0.397,0.690,0.656,��쓌,7.9,��
2020/04/29,08:40,0.692,0.994,0.660,1.203,0.861,0.395,0.689,0.655,��쓌,9.2,��
2020/04/29,08:50,0.692,0.995,0.658,1.204,0.860,0.397,0.691,0.654,��쓌,10.5,��
2020/04/29,09:00,0.692,0.994,0.658,1.203,0.860,0.396,0.691,0.655,��쓌,8.4,��
2020/04/29,09:10,0.692,0.996,0.656,1.202,0.862,0.397,0.690,0.654,��쓌,7.7,��
2020/04/29,09:20,0.692,0.996,0.658,1.204,0.861,0.397,0.692,0.655,��,7.1,��
2020/04/29,09:30,0.692,0.997,0.658,1.204,0.861,0.397,0.692,0.654,��쓌,6.6,��
2020/04/29,09:40,0.691,0.998,0.655,1.204,0.859,0.400,0.693,0.655,��쓌,5.9,��
2020/04/29,09:50,0.693,0.999,0.657,1.204,0.861,0.400,0.692,0.656,��쓌,8.3,��
2020/04/29,10:00,0.692,0.998,0.658,1.204,0.862,0.398,0.691,0.655,��,8.7,��
2020/04/29,10:10,0.691,0.999,0.658,1.204,0.859,0.399,0.693,0.654,��,10.5,��
2020/04/29,10:20,0.692,0.999,0.656,1.205,0.860,0.398,0.693,0.654,��쓌,13.3,��
2020/04/29,10:30,0.692,0.999,0.657,1.206,0.860,0.397,0.693,0.655,��쓌,11.4,��
2020/04/29,10:40,0.691,1.001,0.656,1.204,0.863,0.397,0.693,0.656,��쓌,15.2,��
2020/04/29,10:50,0.691,1.000,0.656,1.205,0.862,0.398,0.693,0.656,��쓌,12.5,��
2020/04/29,11:00,0.692,1.002,0.655,1.205,0.862,0.398,0.694,0.656,��쓌,11.7,��
2020/04/29,11:10,0.692,1.000,0.656,1.206,0.861,0.398,0.693,0.655,��쓌,11.6,��
2020/04/29,11:20,0.692,1.001,0.654,1.209,0.863,0.399,0.692,0.654,��쓌,10.9,��
2020/04/29,11:30,0.692,1.004,0.656,1.205,0.863,0.399,0.694,0.656,��,8.6,��
2020/04/29,11:40,0.693,1.001,0.656,1.205,0.862,0.399,0.693,0.656,��,10.9,��
2020/04/29,11:50,0.693,1.002,0.658,1.203,0.865,0.400,0.694,0.656,��,10.8,��
2020/04/29,12:00,0.695,1.003,0.661,1.203,0.864,0.399,0.693,0.655,��,10.8,��
2020/04/29,12:10,0.693,1.001,0.657,1.205,0.863,0.400,0.693,0.654,��,11.3,��
2020/04/29,12:20,0.694,1.001,0.658,1.205,0.864,0.398,0.694,0.656,��,10.9,��
2020/04/29,12:30,0.694,1.003,0.658,1.206,0.866,0.399,0.693,0.655,��,11.4,��
2020/04/29,12:40,0.695,1.003,0.658,1.204,0.864,0.399,0.693,0.656,��,9.4,��
2020/04/29,12:50,0.692,1.004,0.656,1.206,0.868,0.399,0.694,0.655,��,11.8,��
2020/04/29,13:00,0.696,1.003,0.657,1.206,0.866,0.399,0.693,0.655,��,10.5,��
2020/04/29,13:10,0.696,1.003,0.658,1.207,0.864,0.400,0.694,0.655,��,8.5,��
2020/04/29,13:20,0.695,1.003,0.659,1.207,0.866,0.401,0.695,0.656,��,7.8,��
2020/04/29,13:30,0.695,1.004,0.660,1.210,0.868,0.401,0.694,0.655,��,8.5,��
2020/04/29,13:40,0.694,1.003,0.659,1.208,0.867,0.400,0.694,0.657,��,9.9,��
2020/04/29,13:50,0.696,1.006,0.658,1.209,0.868,0.399,0.696,0.657,��,7.9,��
2020/04/29,14:00,0.695,1.004,0.658,1.210,0.866,0.399,0.693,0.658,��,11.4,��
2020/04/29,14:10,0.696,1.003,0.659,1.211,0.865,0.401,0.694,0.657,��,10.8,��
2020/04/29,14:20,0.694,1.003,0.657,1.210,0.867,0.400,0.694,0.656,��,9.8,��
2020/04/29,14:30,0.696,1.004,0.658,1.209,0.868,0.401,0.694,0.656,��,10.2,��
2020/04/29,14:40,0.695,1.004,0.659,1.207,0.869,0.401,0.694,0.656,��,10.0,��
2020/04/29,14:50,0.696,1.003,0.659,1.208,0.869,0.401,0.694,0.656,��,9.4,��
2020/04/29,15:00,0.696,1.005,0.658,1.204,0.868,0.400,0.693,0.656,��,8.1,��
2020/04/29,15:10,0.698,1.004,0.658,1.205,0.868,0.401,0.693,0.658,��,9.1,��
2020/04/29,15:20,0.695,1.006,0.658,1.208,0.868,0.401,0.694,0.657,��,8.8,��
2020/04/29,15:30,0.698,1.004,0.659,1.207,0.867,0.401,0.694,0.656,��,4.3,��
2020/04/29,15:40,0.697,1.006,0.658,1.207,0.870,0.400,0.695,0.658,��,7.0,��
2020/04/29,15:50,0.697,1.006,0.660,1.207,0.870,0.402,0.694,0.656,��,7.6,��
2020/04/29,16:00,0.696,1.004,0.659,1.209,0.867,0.401,0.693,0.657,��,7.6,��
2020/04/29,16:10,0.698,1.003,0.659,1.206,0.868,0.400,0.694,0.656,��,6.4,��
2020/04/29,16:20,0.698,1.002,0.659,1.206,0.868,0.400,0.694,0.658,��,5.2,��
2020/04/29,16:30,0.697,1.004,0.659,1.208,0.870,0.400,0.695,0.657,��쐼,4.7,��
2020/04/29,16:40,0.696,1.005,0.659,1.206,0.868,0.402,0.693,0.656,���쐼,7.5,��
2020/04/29,16:50,0.697,1.006,0.662,1.208,0.869,0.403,0.694,0.657,��,7.9,��
2020/04/29,17:00,0.696,1.007,0.659,1.209,0.866,0.402,0.696,0.656,��,4.8,��
2020/04/29,17:10,0.699,1.008,0.662,1.207,0.870,0.402,0.694,0.657,��,7.4,��
2020/04/29,17:20,0.697,1.007,0.662,1.208,0.868,0.402,0.694,0.658,���쐼,7.0,��
2020/04/29,17:30,0.697,1.008,0.659,1.211,0.869,0.400,0.694,0.659,���k��,4.9,��
2020/04/29,17:40,0.698,1.008,0.659,1.208,0.867,0.400,0.695,0.660,��,7.4,��
2020/04/29,17:50,0.698,1.010,0.658,1.208,0.868,0.401,0.694,0.660,��,8.3,��
2020/04/29,18:00,0.699,1.009,0.660,1.209,0.867,0.400,0.695,0.658,��,6.8,��
2020/04/29,18:10,0.698,1.008,0.659,1.210,0.869,0.399,0.694,0.659,��,8.5,��
2020/04/29,18:20,0.696,1.007,0.661,1.213,0.869,0.401,0.695,0.659,��,7.0,��
2020/04/29,18:30,0.698,1.009,0.659,1.214,0.869,0.400,0.694,0.660,��,7.9,��
2020/04/29,18:40,0.699,1.009,0.660,1.211,0.869,0.402,0.695,0.660,��,5.3,��
2020/04/29,18:50,0.700,1.008,0.660,1.214,0.865,0.402,0.692,0.659,��,2.8,��
2020/04/29,19:00,0.700,1.008,0.662,1.215,0.870,0.401,0.693,0.660,��,3.5,��
2020/04/29,19:10,0.700,1.007,0.662,1.215,0.871,0.402,0.694,0.660,��,5.2,��
2020/04/29,19:20,0.701,1.006,0.663,1.214,0.870,0.403,0.697,0.659,���쐼,7.2,��
2020/04/29,19:30,0.701,1.006,0.661,1.215,0.871,0.401,0.695,0.659,���쐼,7.5,��
2020/04/29,19:40,0.700,1.008,0.662,1.216,0.873,0.402,0.693,0.659,���쐼,8.5,��
2020/04/29,19:50,0.698,1.009,0.662,1.212,0.872,0.401,0.694,0.660,���쐼,7.3,��
2020/04/29,20:00,0.699,1.008,0.661,1.215,0.871,0.402,0.696,0.658,��,7.1,��
2020/04/29,20:10,0.699,1.007,0.662,1.214,0.873,0.402,0.695,0.660,��,6.8,��
2020/04/29,20:20,0.698,1.005,0.663,1.211,0.869,0.401,0.695,0.658,��,5.2,��
2020/04/29,20:30,0.700,1.010,0.662,1.213,0.869,0.401,0.694,0.658,��,7.0,��
2020/04/29,20:40,0.699,1.006,0.663,1.215,0.871,0.400,0.695,0.659,��,7.4,��
2020/04/29,20:50,0.699,1.008,0.661,1.213,0.867,0.400,0.694,0.659,��,7.3,��
2020/04/29,21:00,0.697,1.006,0.661,1.215,0.868,0.401,0.694,0.658,���k��,5.7,��
2020/04/29,21:10,0.697,1.006,0.660,1.214,0.871,0.402,0.694,0.658,���k��,3.7,��
2020/04/29,21:20,0.697,1.006,0.661,1.214,0.870,0.401,0.694,0.659,���k��,4.8,��
2020/04/29,21:30,0.697,1.006,0.661,1.214,0.869,0.400,0.694,0.660,���k��,5.7,��
2020/04/29,21:40,0.699,1.005,0.663,1.215,0.870,0.402,0.695,0.658,���k��,6.0,��
2020/04/29,21:50,0.697,1.007,0.662,1.214,0.870,0.401,0.694,0.659,�k��,5.1,��
2020/04/29,22:00,0.698,1.007,0.663,1.213,0.870,0.403,0.695,0.660,�k��,5.1,��
2020/04/29,22:10,0.699,1.006,0.662,1.215,0.870,0.402,0.694,0.657,�k��,6.1,��
2020/04/29,22:20,0.696,1.005,0.661,1.214,0.869,0.400,0.694,0.660,�k��,6.4,��
2020/04/29,22:30,0.697,1.005,0.659,1.211,0.868,0.402,0.695,0.657,�k��,5.6,��
2020/04/29,22:40,0.697,1.008,0.661,1.214,0.871,0.399,0.695,0.659,�k��,6.6,��
2020/04/29,22:50,0.698,1.007,0.660,1.214,0.869,0.401,0.695,0.659,�k��,4.7,��
2020/04/29,23:00,0.696,1.007,0.661,1.213,0.869,0.401,0.694,0.658,���k��,5.9,��
2020/04/29,23:10,0.695,1.005,0.662,1.213,0.870,0.401,0.695,0.657,���k��,5.2,��
2020/04/29,23:20,0.698,1.005,0.660,1.212,0.868,0.399,0.695,0.658,���k��,4.7,��
2020/04/29,23:30,0.695,1.006,0.661,1.215,0.869,0.401,0.693,0.660,���k��,4.2,��
2020/04/29,23:40,0.698,1.006,0.661,1.212,0.868,0.401,0.695,0.659,���k��,5.5,��
2020/04/29,23:50,0.695,1.004,0.661,1.213,0.869,0.400,0.696,0.658,���k��,5.6,��
